Retour au catalogue

STARLINK-37795

ActifCommunicationsSSO
NORAD 69311·PAYLOAD·🇺🇸 United States

Lancé May 30, 2026 depuis Vandenberg Space Force Base

Loading…

Prochains Passages (prochaines 24 heures)

TLE

FraisSource: CelesTrak SupGP

Époque: Sep 14, 2026, 22:55 UTC

1 69311C 26119R   26257.95534722  .00039939  00000+0  12399-2 0  2573
2 69311  97.2829 282.7983 0001143  93.3986 334.5246 15.33416436    19

Suivez STARLINK-37795 en temps réel avec AllMySat

Download on the App Store